Time,TemperatureF,DewpointF,PressureIn,WindDirection,WindDirectionDegrees,WindSpeedMPH,WindSpeedGustMPH,Humidity,HourlyPrecipIn,Conditions,Clouds,dailyrainin,SoftwareType,DateUTC
2013-12-28 00:03:00,39.0,34.0,30.15,SSE,151,0.0,0.0,83,0.00,,,0.00,,2013-12-28 06:03:00,
2013-12-28 06:42:00,32.0,29.0,30.16,SSE,151,0.0,0.0,89,0.00,,,0.00,,2013-12-28 12:42:00,
2013-12-28 06:52:00,32.0,29.0,30.16,SSE,151,0.0,0.0,89,0.00,,,0.00,,2013-12-28 12:52:00,
2013-12-28 07:22:00,31.0,28.0,30.16,SSE,151,0.0,0.0,90,0.00,,,0.00,,2013-12-28 13:22:00,
2013-12-28 07:42:00,31.0,28.0,30.17,SSE,151,0.0,1.0,90,0.00,,,0.00,,2013-12-28 13:42:00,
2013-12-28 07:52:00,32.0,29.0,30.16,SSE,151,0.0,0.0,90,0.00,,,0.00,,2013-12-28 13:52:00,
2013-12-28 08:12:00,32.0,30.0,30.16,SSE,151,0.0,1.0,91,0.00,,,0.00,,2013-12-28 14:12:00,
2013-12-28 08:22:00,32.0,30.0,30.16,SSE,151,0.0,1.0,91,0.00,,,0.00,,2013-12-28 14:22:00,
2013-12-28 08:42:00,33.0,31.0,30.15,West,276,0.0,1.0,91,0.00,,,0.00,,2013-12-28 14:42:00,
2013-12-28 08:53:00,34.0,32.0,30.15,West,276,0.0,1.0,92,0.00,,,0.00,,2013-12-28 14:53:00,
2013-12-28 09:12:00,39.0,37.0,30.16,West,276,0.0,1.0,92,0.00,,,0.00,,2013-12-28 15:12:00,
2013-12-28 09:22:00,39.0,37.0,30.16,West,276,0.0,1.0,92,0.00,,,0.00,,2013-12-28 15:22:00,
2013-12-28 09:44:00,47.0,44.0,30.15,West,276,0.0,2.0,90,0.00,,,0.00,,2013-12-28 15:44:00,
2013-12-28 09:53:00,49.0,45.0,30.15,West,276,1.0,3.0,85,0.00,,,0.00,,2013-12-28 15:53:00,
2013-12-28 10:13:00,51.0,43.0,30.16,West,275,1.0,3.0,75,0.00,,,0.00,,2013-12-28 16:13:00,
2013-12-28 10:23:00,52.0,43.0,30.16,West,274,1.0,3.0,72,0.00,,,0.00,,2013-12-28 16:23:00,
2013-12-28 10:43:00,54.0,44.0,30.14,South,178,1.0,2.0,68,0.00,,,0.00,,2013-12-28 16:43:00,
2013-12-28 10:53:00,55.0,44.0,30.14,SE,136,0.0,3.0,67,0.00,,,0.00,,2013-12-28 16:53:00,
2013-12-28 11:22:00,57.0,45.0,30.14,SE,140,1.0,7.0,63,0.00,,,0.00,,2013-12-28 17:22:00,
2013-12-28 11:52:00,58.0,45.0,29.94,SW,226,1.0,5.0,62,0.00,,,0.00,,2013-12-28 17:52:00,
2013-12-28 12:12:00,58.0,44.0,30.09,SSW,192,1.0,3.0,60,0.00,,,0.00,,2013-12-28 18:12:00,
2013-12-28 12:22:00,58.0,44.0,30.09,WSW,241,2.0,5.0,59,0.00,,,0.00,,2013-12-28 18:22:00,
2013-12-28 12:42:00,58.0,44.0,30.07,SSW,195,1.0,6.0,59,0.00,,,0.00,,2013-12-28 18:42:00,
2013-12-28 12:52:00,57.0,43.0,30.06,SSW,209,3.0,7.0,59,0.00,,,0.00,,2013-12-28 18:52:00,
2013-12-28 13:11:00,57.0,43.0,30.06,South,181,2.0,6.0,60,0.00,,,0.00,,2013-12-28 19:11:00,
2013-12-28 13:21:00,58.0,43.0,30.04,SSW,205,1.0,5.0,58,0.00,,,0.00,,2013-12-28 19:21:00,
2013-12-28 13:42:00,58.0,43.0,30.01,SW,215,1.0,5.0,58,0.00,,,0.00,,2013-12-28 19:42:00,
2013-12-28 13:52:00,58.0,42.0,30.00,SSE,157,2.0,6.0,56,0.00,,,0.00,,2013-12-28 19:52:00,
2013-12-28 14:22:00,59.0,43.0,29.98,SE,142,2.0,3.0,55,0.00,,,0.00,,2013-12-28 20:22:00,
2013-12-28 14:42:00,59.0,42.0,29.98,SE,144,1.0,6.0,53,0.00,,,0.00,,2013-12-28 20:42:00,
2013-12-28 14:52:00,59.0,42.0,29.96,SSE,153,1.0,3.0,54,0.00,,,0.00,,2013-12-28 20:52:00,
2013-12-28 15:22:00,59.0,41.0,29.96,SSE,158,1.0,3.0,51,0.00,,,0.00,,2013-12-28 21:22:00,
2013-12-28 15:43:00,59.0,41.0,29.95,WSW,246,1.0,3.0,52,0.00,,,0.00,,2013-12-28 21:43:00,
2013-12-28 15:53:00,59.0,42.0,29.95,SE,137,1.0,6.0,54,0.00,,,0.00,,2013-12-28 21:53:00,
2013-12-28 16:03:00,59.0,42.0,29.95,SE,137,1.0,6.0,54,0.00,,,0.00,,2013-12-28 22:03:00,
2013-12-28 16:12:00,59.0,42.0,29.95,SE,137,1.0,6.0,54,0.00,,,0.00,,2013-12-28 22:12:00,
2013-12-28 16:23:00,59.0,42.0,29.95,SE,137,1.0,6.0,54,0.00,,,0.00,,2013-12-28 22:23:00,
2013-12-28 16:52:00,58.0,41.0,29.93,SSE,162,0.0,5.0,54,0.00,,,0.00,,2013-12-28 22:52:00,
2013-12-28 17:11:00,57.0,41.0,29.93,SSE,153,1.0,5.0,55,0.00,,,0.00,,2013-12-28 23:11:00,
2013-12-28 17:22:00,56.0,40.0,29.93,ESE,115,0.0,6.0,55,0.00,,,0.00,,2013-12-28 23:22:00,
2013-12-28 17:42:00,56.0,41.0,29.16,WNW,289,0.0,3.0,56,0.00,,,0.00,,2013-12-28 23:42:00,
2013-12-28 17:53:00,56.0,41.0,29.32,SE,125,0.0,3.0,57,0.00,,,0.00,,2013-12-28 23:53:00,
2013-12-28 18:22:00,54.0,40.0,29.40,SE,140,0.0,1.0,59,0.00,,,0.00,,2013-12-29 00:22:00,
2013-12-28 18:42:00,54.0,40.0,29.91,SE,140,0.0,1.0,60,0.00,,,0.00,,2013-12-29 00:42:00,
2013-12-28 18:52:00,53.0,40.0,29.93,SE,140,0.0,1.0,62,0.00,,,0.00,,2013-12-29 00:52:00,
2013-12-28 19:11:00,52.0,40.0,29.38,SE,144,0.0,2.0,64,0.00,,,0.00,,2013-12-29 01:11:00,
2013-12-28 19:22:00,52.0,40.0,29.38,SE,144,0.0,2.0,64,0.00,,,0.00,,2013-12-29 01:22:00,
2013-12-28 19:42:00,51.0,40.0,29.75,SE,137,0.0,3.0,65,0.00,,,0.00,,2013-12-29 01:42:00,
2013-12-28 19:52:00,51.0,40.0,29.75,SE,137,0.0,1.0,66,0.00,,,0.00,,2013-12-29 01:52:00,
2013-12-28 20:22:00,50.0,39.0,29.87,SE,142,0.0,3.0,67,0.00,,,0.00,,2013-12-29 02:22:00,
2013-12-28 20:42:00,50.0,39.0,29.91,SE,144,0.0,3.0,67,0.00,,,0.00,,2013-12-29 02:42:00,
2013-12-28 20:52:00,50.0,39.0,29.91,SE,144,0.0,3.0,67,0.00,,,0.00,,2013-12-29 02:52:00,
2013-12-28 21:22:00,49.0,38.0,29.61,SSE,155,0.0,3.0,65,0.00,,,0.00,,2013-12-29 03:22:00,
2013-12-28 21:43:00,49.0,37.0,29.81,SSE,155,0.0,2.0,63,0.00,,,0.00,,2013-12-29 03:43:00,
2013-12-28 21:53:00,49.0,37.0,29.81,SSE,155,0.0,2.0,63,0.00,,,0.00,,2013-12-29 03:53:00,
2013-12-28 22:02:00,-999.0,-99.9,29.77,SSE,155,0.0,2.0,-999,0.00,,,0.00,,2013-12-29 04:02:00,
2013-12-28 22:22:00,48.0,36.0,29.12,SSE,155,0.0,1.0,63,0.00,,,0.00,,2013-12-29 04:22:00,
2013-12-28 22:42:00,48.0,36.0,29.77,SSE,155,0.0,1.0,64,0.00,,,0.00,,2013-12-29 04:42:00,
2013-12-28 22:53:00,47.0,35.0,29.90,SSE,155,0.0,1.0,64,0.00,,,0.00,,2013-12-29 04:53:00,
2013-12-28 23:02:00,47.0,35.0,29.90,SSE,155,0.0,1.0,64,0.00,,,0.00,,2013-12-29 05:02:00,
2013-12-28 23:12:00,47.0,35.0,29.90,SSE,155,0.0,1.0,64,0.00,,,0.00,,2013-12-29 05:12:00,
2013-12-28 23:23:00,46.0,35.0,29.90,SE,144,0.0,1.0,66,0.00,,,0.00,,2013-12-29 05:23:00,
2013-12-28 23:33:00,46.0,35.0,29.90,SE,144,0.0,1.0,66,0.00,,,0.00,,2013-12-29 05:33:00,
2013-12-28 23:43:00,46.0,35.0,29.90,SE,144,0.0,1.0,66,0.00,,,0.00,,2013-12-29 05:43:00,
2013-12-28 23:53:00,46.0,35.0,29.90,SE,144,0.0,1.0,66,0.00,,,0.00,,2013-12-29 05:53:00,